Theta_e
366 366 364 364 361 356 349 338 315 318 316 310 312 315 313 327 329 327 328 332 326 337 337 339 338 335 331 327 328 329 332 323 323 314 309 322 352 353 354 354 353 352 352 355 357 359 358 357 356 359 359 364 368 369 368 369 369 368 368 368 367 368 368 368 368 368 369 370 370 370 371 371 371 370 369 368 368 368 369 368 369 368 368 369 368 368 368 368 368 368 368 368 368 367 366 365 365
366 364 361 359 353 347 332 329 314 310 310 307 310 318 319 327 327 324 325 328 332 337 342 341 341 339 338 336 333 333 329 337 337 335 343 350 353 352 355 355 354 351 353 355 357 358 358 359 358 358 361 362 365 368 369 368 368 368 368 367 368 368 367 367 367 368 368 369 371 371 371 371 371 369 369 369 370 368 368 369 369 368 368 368 368 368 368 368 368 369 368 369 368 368 367 367 367
362 358 355 355 350 341 334 327 311 305 305 305 308 315 324 322 320 326 329 333 338 340 340 339 339 336 332 333 327 326 318 343 343 344 344 351 346 349 356 356 355 354 354 355 357 357 358 357 360 360 362 365 366 367 367 368 367 368 367 368 368 366 367 369 369 368 368 368 370 371 371 371 370 370 369 369 369 368 368 368 368 367 367 367 367 367 368 367 368 368 368 368 368 368 368 366 366
351 355 348 345 335 331 319 316 311 308 304 306 307 318 322 323 325 328 332 336 338 340 339 337 333 339 332 325 327 336 335 337 347 344 342 346 348 354 356 357 358 357 356 356 356 356 357 361 363 364 365 366 367 367 367 367 368 367 367 366 366 367 365 368 367 368 369 369 370 371 371 370 369 369 369 368 369 368 368 368 368 367 367 367 367 367 368 368 367 367 367 368 367 368 368 368 368
348 358 354 342 331 323 320 313 312 309 307 308 308 317 324 327 327 330 335 340 339 339 338 337 333 337 333 330 336 322 326 344 345 349 347 351 356 356 357 358 358 357 355 355 355 355 356 365 364 366 366 366 366 367 367 367 366 366 366 367 367 364 364 366 367 368 367 369 370 370 370 370 369 368 368 368 368 368 368 368 367 367 367 366 367 367 367 368 367 367 367 366 366 366 367 367 366
351 350 356 344 326 331 319 312 312 311 314 316 315 318 323 327 328 334 337 341 342 341 340 337 333 332 329 332 339 332 343 333 345 349 351 350 355 357 358 359 358 357 357 356 355 355 356 365 366 365 365 365 364 365 367 365 365 365 366 366 366 366 367 367 367 368 367 367 368 369 369 369 369 368 368 368 368 368 367 368 367 367 367 367 366 367 367 367 366 366 366 366 366 365 366 365 365
345 343 340 329 328 326 312 308 310 311 317 324 317 321 326 329 331 334 336 338 343 343 344 338 332 330 324 330 337 344 346 349 348 349 354 354 356 358 358 358 358 357 359 359 358 356 357 364 365 365 365 365 365 366 365 365 364 364 365 366 366 366 366 366 367 366 368 367 368 369 369 369 368 368 368 368 368 367 367 368 368 367 367 367 367 367 367 367 366 366 365 365 365 365 365 364 364
355 338 333 320 315 318 310 309 312 312 318 326 327 325 328 331 334 333 334 334 329 331 337 341 341 333 331 341 327 342 349 354 353 355 355 355 356 357 358 357 356 357 359 360 360 359 363 365 365 365 365 365 364 365 366 366 366 365 365 366 366 366 366 366 366 366 366 366 366 368 369 369 368 368 368 368 368 368 368 367 367 367 368 367 367 367 367 367 366 365 365 364 365 365 365 364 364
346 341 334 317 311 310 307 310 313 318 321 325 327 332 339 334 335 334 333 336 337 338 337 336 340 329 329 335 334 343 349 354 355 357 356 356 356 357 357 356 356 356 359 360 360 360 362 365 366 366 366 366 366 365 365 365 365 365 366 366 366 366 366 366 366 367 368 365 368 367 368 368 368 368 368 369 368 367 367 367 367 367 367 367 367 367 367 366 365 365 364 363 364 364 364 364 364
339 333 320 316 312 307 302 307 313 319 322 326 327 330 334 335 334 336 333 333 334 337 335 340 339 330 335 330 333 340 347 355 355 354 355 356 356 357 356 357 357 357 357 358 359 361 362 364 365 366 365 365 364 366 366 366 365 366 365 366 366 366 366 366 367 367 367 368 367 367 368 368 368 368 369 369 368 368 367 367 368 368 367 367 367 367 366 365 364 364 363 362 362 363 363 364 363
326 330 326 311 306 304 305 307 309 316 324 328 329 333 335 336 335 331 334 334 338 333 336 340 333 332 336 334 336 349 354 354 352 350 354 355 356 356 356 358 358 358 357 358 359 362 361 362 365 365 366 364 366 365 366 365 365 363 365 366 366 366 367 367 367 367 367 367 367 368 368 367 368 368 368 368 368 368 367 367 368 367 367 367 367 366 366 365 364 364 363 363 361 362 363 364 363
321 321 317 307 308 306 308 308 313 317 322 325 326 333 336 335 335 329 330 329 334 334 334 339 331 338 332 333 336 348 352 352 352 354 354 355 355 356 356 357 358 358 358 358 361 361 361 361 362 365 366 366 366 365 366 367 367 366 367 366 367 367 367 367 367 367 367 367 367 367 368 368 368 368 367 367 367 366 366 367 367 367 367 367 366 366 365 364 364 364 364 363 361 362 363 364 364
325 320 312 308 309 310 311 312 313 320 315 320 325 331 337 334 331 330 331 333 335 335 334 342 339 339 327 331 341 348 348 351 354 354 354 355 356 356 357 357 358 358 358 359 360 360 361 361 361 363 364 367 367 367 367 366 366 366 367 367 367 367 367 367 367 367 367 367 367 367 368 367 368 368 367 366 366 366 366 366 366 366 366 365 366 366 365 364 364 363 363 364 364 364 363 363 363
323 324 316 312 313 311 312 312 313 317 313 319 328 333 337 333 333 334 332 328 331 333 338 343 341 340 334 338 339 341 346 352 353 354 355 356 356 356 356 357 357 357 358 359 359 360 360 361 361 361 362 360 363 365 367 366 366 366 366 366 366 367 367 367 367 367 367 366 366 366 366 367 367 367 368 367 366 366 367 367 367 366 365 365 365 365 365 365 364 364 364 365 365 364 363 363 362
326 325 313 309 308 311 310 312 314 312 312 322 329 332 334 338 336 334 331 327 330 342 350 348 343 335 327 332 331 340 347 351 353 354 355 356 356 356 356 356 356 357 358 359 360 360 359 360 357 352 354 354 355 355 358 364 365 366 366 366 366 365 364 365 366 366 367 366 366 366 365 365 365 365 366 368 367 364 364 362 364 360 362 365 365 365 365 364 364 364 365 365 365 364 363 362 362
330 318 311 310 307 310 311 314 314 312 313 325 330 333 330 331 338 332 333 334 335 349 346 336 347 337 335 335 337 345 350 352 354 355 354 354 355 355 355 355 355 356 358 359 359 360 360 359 355 352 353 354 353 353 354 355 363 365 365 365 365 365 366 365 365 365 365 366 367 366 365 365 362 361 353 355 354 352 354 353 360 357 360 364 364 364 364 364 364 364 364 364 364 363 361 361 361
321 321 314 303 304 309 309 314 315 310 315 324 332 331 326 326 336 338 345 346 334 334 341 344 344 348 339 341 345 349 351 354 356 354 353 352 352 352 353 353 354 355 357 358 358 359 360 358 355 353 352 351 353 353 352 353 356 364 363 365 364 364 363 364 365 365 365 364 364 365 364 361 356 353 348 345 352 348 355 358 358 358 357 361 362 363 364 364 364 364 364 364 363 363 360 361 361
322 315 306 305 303 307 312 316 317 316 322 324 329 331 327 324 331 336 339 335 338 337 337 341 344 346 345 344 349 351 352 352 352 351 350 349 350 349 349 351 351 350 353 355 358 359 359 359 356 353 351 350 352 353 352 351 353 362 358 360 361 361 361 361 362 361 362 355 363 362 354 355 351 350 350 350 350 349 355 359 358 360 360 361 362 361 362 363 363 363 363 363 361 360 360 362 361
316 309 306 303 305 310 319 320 322 323 323 327 331 331 329 327 332 334 328 327 332 331 333 336 336 338 342 345 348 349 350 350 351 350 348 347 348 347 347 349 349 350 351 353 355 357 358 358 358 358 357 355 353 352 352 352 351 354 354 353 356 361 360 360 360 360 354 353 353 355 355 352 350 349 350 350 349 356 354 358 361 363 363 362 362 360 360 362 362 362 362 361 360 359 361 358 356
318 308 306 304 311 314 319 323 324 326 328 328 330 330 330 329 332 337 328 325 331 327 327 330 331 331 337 343 347 348 349 349 350 349 348 347 348 348 348 348 348 349 350 352 354 357 357 357 357 357 357 357 356 355 353 353 351 352 353 351 352 355 357 359 357 356 354 353 353 353 354 352 350 349 354 355 352 353 353 359 361 362 363 363 361 358 355 355 358 360 361 361 365 364 358 357 357
315 311 307 309 312 315 318 322 326 327 331 329 330 330 329 330 333 333 329 327 327 330 332 331 332 331 336 343 345 347 347 347 348 348 348 347 348 349 349 349 349 350 351 353 354 355 356 356 356 356 357 357 357 357 356 354 352 352 353 350 351 354 355 356 356 355 353 353 352 354 354 355 352 350 352 353 350 349 349 351 356 358 359 356 360 353 353 350 350 351 355 357 353 357 357 356 356
314 312 313 315 318 317 321 323 327 329 331 330 328 328 328 333 334 331 330 323 322 329 335 335 336 334 338 342 344 346 345 346 347 347 347 347 347 347 349 350 351 352 352 351 352 354 356 357 356 356 356 357 357 357 357 357 355 350 350 353 352 355 354 355 355 354 354 353 352 354 354 353 353 353 353 351 347 347 347 350 353 357 355 355 360 354 350 348 350 352 354 354 354 353 355 356 356
309 311 316 318 320 319 322 326 328 331 328 328 326 330 332 330 328 331 331 328 328 335 338 337 338 337 341 344 344 344 343 344 346 346 347 347 347 348 348 349 349 348 350 350 352 353 355 356 356 356 356 356 356 357 356 358 355 355 353 355 355 355 354 353 353 353 352 353 352 354 351 350 351 353 353 352 351 349 350 353 354 355 354 354 354 354 353 352 353 354 353 353 352 352 354 355 356
313 310 316 319 320 318 323 326 328 330 329 327 330 332 328 328 325 330 330 333 333 337 339 338 340 338 342 341 343 343 343 344 345 347 348 348 349 349 349 349 350 350 350 350 351 352 355 355 356 356 355 355 355 356 356 356 356 355 356 359 358 358 355 353 353 352 353 353 352 353 354 351 352 352 353 353 353 352 352 352 353 353 352 350 351 352 352 351 352 352 353 352 352 352 352 353 355
307 309 317 319 321 320 326 328 329 328 327 329 331 328 327 329 327 331 330 334 335 339 338 339 339 337 339 340 341 342 342 343 345 347 349 349 351 352 352 351 350 350 348 349 351 352 353 355 355 355 355 355 355 356 355 355 355 355 356 358 356 359 355 355 354 353 352 353 352 351 354 350 351 351 352 353 354 353 353 353 352 353 350 347 347 348 350 350 350 350 351 352 351 351 351 352 353
306 309 318 318 320 323 326 326 326 327 328 330 327 325 326 330 330 328 331 333 336 338 337 338 338 335 336 338 340 341 341 342 345 345 346 348 350 350 350 351 351 349 349 350 351 351 353 355 354 355 355 355 355 355 355 354 355 354 355 357 357 358 356 355 354 352 352 351 351 351 355 354 353 353 353 354 353 353 353 353 352 352 351 348 346 344 349 351 350 350 350 351 351 351 351 352 355
308 309 317 319 321 324 324 324 322 326 327 328 325 322 324 328 325 318 325 332 339 336 335 337 337 334 335 337 339 341 341 342 344 345 346 346 348 348 349 349 349 349 351 350 351 352 354 354 354 355 355 357 355 354 354 354 355 354 355 357 358 357 357 356 354 353 353 352 353 353 355 355 355 354 354 353 353 353 353 352 352 352 351 350 349 348 350 351 351 350 350 350 351 351 351 353 353
308 316 320 317 320 324 324 323 322 326 325 328 325 322 322 326 324 321 324 334 337 333 334 335 335 334 334 336 337 340 341 342 344 344 343 343 344 346 347 347 348 349 350 350 352 354 354 354 354 354 355 356 355 354 355 354 354 354 355 356 356 357 358 356 355 354 353 353 354 354 355 355 355 354 354 353 352 352 352 352 352 352 351 352 352 351 349 350 351 351 351 351 351 352 351 352 353
307 318 314 314 318 319 321 323 323 324 323 328 325 320 315 320 320 324 327 337 335 333 333 334 334 333 333 335 336 337 338 339 341 342 343 344 346 347 346 348 349 349 351 352 352 354 354 354 353 354 355 356 354 354 354 354 354 355 355 355 356 357 356 356 355 354 354 352 351 354 355 353 354 354 353 352 352 351 352 352 351 352 352 353 352 352 350 349 350 350 351 352 351 351 351 351 352
313 310 314 313 311 311 317 324 324 324 324 327 323 306 305 312 322 322 326 336 333 330 331 333 333 332 332 333 334 335 337 338 339 340 343 343 344 346 345 346 349 350 350 351 353 352 355 355 355 354 354 355 355 354 355 354 354 354 356 355 357 356 356 355 355 355 355 352 352 353 353 353 353 352 352 352 352 351 351 352 351 351 352 353 353 352 351 349 349 350 350 351 351 351 350 350 351
303 307 311 306 306 305 315 321 323 322 325 324 320 305 305 309 312 316 326 335 331 329 330 332 332 332 331 332 333 334 336 338 339 340 342 343 343 344 345 345 347 349 352 350 351 352 355 355 356 354 356 354 356 354 355 354 355 355 355 355 355 355 355 354 355 355 354 353 352 352 352 351 351 351 352 351 351 351 351 351 351 351 352 352 351 352 351 351 351 350 350 349 350 351 351 352 351
298 301 297 298 307 305 311 321 321 320 323 324 317 305 308 311 313 315 328 333 331 328 329 331 331 331 331 330 332 333 335 337 339 341 341 342 343 341 343 343 345 347 349 350 351 352 353 354 357 354 355 354 355 355 355 355 355 355 355 357 355 355 355 354 354 354 354 354 352 351 351 351 350 351 353 353 351 352 351 351 351 352 352 351 351 351 352 350 350 350 351 351 348 349 350 350 351
296 297 293 297 302 303 308 316 322 324 323 321 316 306 305 307 313 317 328 332 329 327 327 329 330 331 331 331 332 333 333 335 337 339 341 341 342 342 342 343 344 347 350 350 350 351 352 353 357 354 354 354 355 355 355 355 355 354 355 356 354 355 354 353 353 353 354 354 352 352 352 352 351 351 353 353 352 351 351 351 352 352 352 351 350 351 351 351 350 350 350 351 351 348 348 348 350
291 294 298 297 301 301 302 308 315 321 321 316 318 310 309 307 314 323 327 331 328 326 327 328 330 331 332 331 331 332 332 333 334 336 339 341 342 343 343 347 346 348 350 351 351 351 351 352 354 354 354 355 355 355 354 354 355 355 355 356 357 354 354 354 353 354 354 354 352 352 352 352 353 352 353 353 352 352 352 352 352 352 352 351 350 350 350 351 351 351 350 351 351 350 348 348 348
295 295 293 294 298 303 303 304 310 319 319 315 315 313 314 315 315 319 326 329 329 328 328 329 330 331 331 331 331 332 332 332 334 337 339 340 342 343 344 346 349 348 349 351 351 351 352 353 355 355 354 354 354 355 355 354 355 354 355 354 354 353 353 354 353 352 353 354 353 353 352 352 353 351 352 353 352 352 352 352 352 352 353 351 350 350 349 350 351 351 350 350 353 351 350 350 349
299 298 297 297 295 296 301 307 310 319 314 312 313 312 314 314 315 317 323 327 327 328 328 328 329 330 331 331 331 331 332 333 336 338 339 340 342 344 344 347 349 349 349 351 351 351 351 352 354 354 355 354 354 354 355 353 352 351 350 351 352 352 350 352 351 351 351 351 353 354 354 352 352 353 353 353 352 352 352 352 352 352 352 352 350 349 348 349 349 349 350 349 349 351 354 352 351
299 297 298 297 295 296 301 304 310 317 312 312 313 314 313 313 313 314 318 324 325 325 326 326 327 328 330 330 331 331 331 333 337 338 339 340 342 344 345 347 349 349 349 350 350 350 351 352 353 352 354 354 353 352 352 351 349 347 348 349 349 351 349 349 349 350 350 350 351 353 353 353 352 353 352 352 351 352 352 352 352 352 352 352 350 349 350 350 350 351 350 352 350 348 348 350 350
300 298 296 295 294 294 300 306 309 313 312 306 310 311 312 313 311 309 315 323 324 326 326 325 326 327 328 330 330 331 332 334 336 337 338 340 342 344 345 347 349 346 347 349 349 350 351 352 352 353 354 353 353 353 353 352 351 350 348 347 349 350 350 349 347 348 349 350 351 352 353 352 352 352 353 351 352 351 351 351 351 351 351 352 352 352 351 352 352 351 350 348 351 350 348 349 348
298 297 295 293 294 296 297 303 308 313 312 305 306 309 310 309 308 311 316 322 325 328 327 327 327 325 326 328 330 331 332 332 333 335 338 340 341 344 344 346 347 347 347 348 350 350 350 351 352 353 353 353 353 353 353 352 352 353 351 350 350 349 352 353 351 351 352 350 351 352 352 352 353 352 353 352 351 351 352 351 351 351 352 352 352 350 351 351 351 350 350 348 346 347 349 350 349
295 293 293 291 294 295 291 296 306 312 310 305 303 306 302 304 307 312 315 320 322 322 324 325 326 326 326 327 329 330 331 331 332 333 335 338 340 342 343 344 346 346 347 347 348 349 349 351 351 352 353 353 353 354 355 354 354 353 354 353 353 351 350 353 353 353 353 352 351 353 353 353 352 353 353 352 352 351 351 351 352 351 351 353 352 350 349 350 350 350 349 349 348 344 345 347 352
293 294 290 291 293 292 294 296 304 307 308 305 300 295 295 300 302 306 313 318 322 322 321 321 322 326 327 327 328 329 330 331 332 333 334 337 339 341 342 344 345 345 345 346 347 349 349 349 351 352 352 352 353 355 355 354 355 352 352 352 354 352 353 351 350 349 350 351 351 351 352 354 354 353 354 354 354 351 352 352 352 352 352 352 353 351 349 350 350 351 350 349 348 346 344 345 351
288 292 297 296 293 295 294 298 300 294 298 303 305 293 290 295 301 305 310 313 318 318 318 320 321 322 324 325 326 327 330 331 332 333 334 337 339 341 343 344 344 344 344 346 347 349 349 349 350 351 352 352 352 353 354 353 353 349 347 346 344 345 344 345 345 346 347 347 348 351 353 354 354 354 354 355 355 354 352 352 353 352 352 352 353 352 351 350 350 350 350 349 348 348 348 344 343
291 294 295 296 294 294 296 299 297 294 292 301 303 295 288 292 303 306 306 309 313 315 315 318 319 320 321 323 325 326 326 328 331 334 335 336 338 340 342 343 344 344 345 346 347 348 349 349 350 351 351 352 352 353 354 354 351 350 348 347 346 345 344 346 349 350 349 350 351 351 352 354 354 354 354 355 355 356 354 354 354 353 353 353 354 353 351 350 350 350 352 350 349 350 348 345 344
291 292 293 294 294 294 295 299 298 293 299 303 299 294 292 292 295 303 305 309 310 312 314 316 318 318 319 321 323 324 325 327 331 333 335 337 338 340 341 343 344 345 345 346 346 348 348 348 349 350 351 353 352 353 353 354 351 349 348 348 348 346 346 346 348 349 350 351 350 351 352 353 354 354 353 354 355 356 356 354 355 354 353 353 354 352 351 351 352 352 354 352 352 352 349 346 344
291 295 294 296 295 294 295 296 292 293 295 290 292 301 295 293 296 303 308 309 308 310 312 314 317 318 318 319 321 322 324 327 331 333 335 336 337 339 341 343 345 346 345 345 345 347 349 349 350 350 349 348 349 352 353 353 353 351 349 348 347 348 347 347 350 351 350 352 350 351 351 352 353 354 354 353 353 355 357 355 354 354 353 353 356 354 352 352 351 351 352 353 351 351 350 349 347
296 294 296 296 298 297 293 291 294 294 291 289 292 295 293 288 292 300 306 307 306 308 311 313 315 316 316 318 320 322 324 327 330 333 335 337 338 340 342 344 345 345 345 347 346 348 349 349 351 347 346 346 346 349 353 352 353 353 349 348 347 347 348 348 348 348 349 350 349 350 351 351 352 352 353 353 353 354 355 356 354 354 354 353 357 354 353 352 352 352 352 352 353 352 352 351 347
297 295 297 293 294 294 298 294 291 290 290 286 290 295 293 290 293 301 304 307 308 309 310 312 314 315 316 317 320 322 324 327 329 331 333 336 338 341 343 343 344 345 345 345 345 347 349 349 350 346 346 348 349 352 353 352 352 352 350 349 348 347 346 346 345 346 347 348 348 349 350 350 352 351 352 352 352 353 354 356 354 354 354 356 357 354 353 353 352 353 352 353 354 352 351 352 354
297 294 294 290 292 292 291 287 290 287 283 286 292 294 294 292 293 296 304 309 309 311 311 313 313 314 316 318 319 323 324 327 330 331 331 333 336 339 343 343 344 344 345 344 345 346 349 350 350 346 347 348 349 352 353 352 352 351 351 349 348 348 347 346 345 345 347 347 348 348 350 350 351 352 351 351 351 352 353 354 356 354 354 354 354 355 354 354 354 353 352 353 354 354 353 354 352
295 294 292 290 284 285 288 283 289 286 286 297 294 296 297 293 293 299 302 304 308 311 313 313 314 314 315 316 319 322 324 328 330 331 331 332 334 337 341 343 343 343 344 344 345 346 348 350 350 346 345 347 349 352 351 351 350 350 349 349 349 349 347 346 346 346 347 347 348 348 348 349 350 350 350 350 351 351 353 353 354 354 353 354 355 355 355 355 354 353 352 351 353 354 353 353 352
294 294 288 285 283 279 282 279 284 284 289 292 297 298 293 294 299 301 305 309 308 309 312 316 317 315 316 318 320 323 326 328 329 331 331 332 334 337 340 342 343 343 344 344 345 346 347 349 350 348 346 348 350 351 351 350 350 350 349 349 349 350 348 347 346 346 347 348 349 348 348 349 349 350 350 350 351 352 353 353 355 355 355 355 355 354 355 355 354 352 352 352 351 353 354 354 354
294 292 292 291 283 285 285 281 286 287 286 289 295 294 292 295 298 305 308 312 313 316 319 320 325 322 321 321 322 326 329 330 331 332 333 334 335 337 340 341 342 343 343 344 344 345 346 347 349 349 347 348 350 350 350 349 349 349 349 349 350 350 349 348 347 347 347 347 349 348 348 349 350 351 351 352 353 352 352 353 353 354 354 354 355 355 355 355 356 354 354 353 354 353 353 354 352
291 292 293 292 292 289 290 283 286 285 290 293 294 294 297 297 304 309 311 314 317 320 318 323 318 320 321 321 322 324 328 330 332 334 334 335 335 337 339 340 341 342 343 343 343 344 345 346 348 349 349 349 350 351 349 349 348 348 348 348 349 351 353 351 349 351 348 348 348 349 348 348 350 351 352 352 351 352 352 352 354 354 355 354 353 354 354 354 354 353 352 353 352 354 352 352 353
293 295 293 293 294 296 292 297 293 293 289 290 294 294 295 300 306 307 310 313 314 315 316 318 318 318 318 319 321 323 326 329 331 332 334 334 334 337 338 340 341 342 342 342 343 344 344 345 347 348 349 350 350 350 349 347 347 347 347 348 349 349 350 351 350 348 348 348 348 348 348 348 349 351 351 352 351 352 353 352 352 353 354 354 353 354 354 355 355 354 352 352 351 353 355 353 352
293 292 293 295 298 293 292 288 285 285 285 288 292 293 292 293 295 303 310 310 311 311 313 316 317 316 318 319 319 321 324 329 331 332 334 335 334 337 337 340 341 342 343 343 343 344 345 345 346 347 348 347 349 350 349 348 346 347 347 347 348 349 349 350 352 351 350 349 348 348 349 348 348 350 352 352 351 351 352 354 352 352 353 353 353 352 353 354 354 353 353 353 352 354 353 354 354
301 298 298 296 292 292 287 288 285 285 285 285 290 293 295 293 296 301 306 309 311 310 310 314 316 317 317 318 319 321 323 326 330 333 333 333 333 335 336 338 341 342 345 343 344 345 345 345 346 347 346 343 346 347 349 349 348 348 348 348 348 348 349 350 352 354 353 349 348 348 348 348 349 351 352 353 352 351 351 352 353 352 352 352 352 352 353 354 354 353 352 352 353 353 352 352 354
302 300 298 298 292 288 291 291 289 285 285 287 288 289 294 298 297 301 304 306 308 309 310 313 316 317 317 318 319 321 323 325 329 332 334 334 334 335 336 338 339 341 342 342 343 345 345 345 347 348 346 345 348 348 349 348 349 349 349 349 349 349 349 349 351 352 353 352 349 348 348 348 349 351 348 350 350 352 351 350 351 351 351 351 351 351 352 352 353 353 352 352 352 353 351 351 351
299 299 296 296 297 296 294 295 294 293 286 284 286 287 290 295 300 303 305 308 310 310 311 313 316 318 318 319 320 321 322 325 329 332 334 335 335 335 336 337 339 340 343 343 342 344 345 346 346 348 348 347 347 348 349 349 350 350 350 349 349 349 348 350 350 352 353 353 352 350 346 348 350 349 348 348 349 348 350 350 350 352 351 352 352 351 351 353 352 352 353 353 354 353 351 351 352
298 296 296 296 296 293 293 292 293 294 291 286 286 286 289 298 308 307 307 309 311 311 312 313 316 317 318 319 322 321 322 324 327 330 332 333 334 334 335 337 338 339 340 340 341 343 344 344 345 346 347 347 347 348 349 350 351 351 350 350 350 350 349 349 349 351 353 353 350 343 344 346 347 347 348 347 348 348 351 351 350 349 353 352 350 350 351 351 351 350 351 351 352 353 352 352 352
Wind_Speed
3 2 2 2 2 2 2 1 1 2 4 3 2 2 1 0 1 2 1 0 1 1 2 2 4 2 2 2 4 5 2 3 3 7 4 2 4 8 7 12 13 12 10 7 6 7 10 11 12 11 12 12 16 16 17 17 17 16 16 15 14 13 13 13 15 15 15 15 15 15 14 13 13 13 12 11 10 10 10 10 10 10 11 10 10 11 11 12 12 12 12 12 12 12 11 12 10
3 3 2 2 2 1 1 2 4 3 4 2 1 1 2 1 0 2 1 2 1 2 1 2 2 3 3 4 3 4 2 1 1 1 3 4 9 6 8 10 14 14 10 8 6 7 10 13 19 17 19 17 18 17 16 17 17 17 16 16 16 15 14 14 15 14 14 14 15 14 14 13 13 12 11 11 10 10 9 10 10 9 10 10 10 10 11 11 12 12 12 12 12 11 11 11 11
2 3 1 1 1 1 0 1 1 1 4 4 2 3 1 1 1 1 3 3 3 2 2 1 1 2 2 2 2 1 1 1 4 3 5 10 12 5 9 9 10 11 11 8 7 6 7 11 21 20 22 20 20 19 17 17 16 17 17 16 15 16 12 15 14 14 13 13 14 14 14 13 13 12 11 10 10 10 9 9 9 9 9 9 9 10 10 11 11 11 12 11 11 11 11 11 11
2 2 1 1 1 1 1 4 4 4 3 1 1 1 1 1 3 3 3 4 2 1 2 2 1 1 4 1 1 3 3 1 1 6 8 9 3 9 10 10 9 8 8 7 6 5 4 12 17 18 18 19 19 19 17 17 16 16 17 17 17 17 15 14 14 14 13 13 14 14 13 13 12 12 11 10 10 9 9 9 9 8 8 9 10 10 10 10 11 11 11 11 11 10 10 11 11
1 0 2 2 1 3 3 1 3 2 3 3 2 2 1 2 3 2 3 2 2 1 2 2 0 1 1 3 1 0 2 3 5 2 5 5 9 9 11 10 10 9 8 8 7 5 4 15 16 16 17 17 17 18 17 14 16 16 16 17 17 17 17 16 15 14 13 12 13 13 12 12 12 12 11 10 9 9 9 9 9 8 8 7 9 10 10 9 10 11 11 10 10 10 10 9 10
1 2 2 2 1 2 4 4 5 4 1 2 0 1 1 2 2 1 4 4 2 3 3 1 2 2 2 2 0 3 4 4 4 4 5 5 12 11 12 11 10 9 8 7 6 4 4 14 16 16 16 16 16 18 18 16 15 16 16 16 16 16 15 15 15 13 13 12 13 12 12 12 12 11 11 10 9 9 9 9 9 8 8 8 7 9 10 9 9 11 11 10 9 9 9 9 9
1 1 2 3 2 4 4 4 2 1 2 2 1 1 1 1 3 1 3 3 1 2 2 1 2 3 4 1 3 2 2 4 3 3 4 9 13 12 11 10 10 10 9 7 6 6 6 15 15 17 17 15 17 16 17 18 18 17 17 16 16 15 15 15 14 14 13 13 13 12 12 11 11 11 10 10 9 9 9 9 9 8 8 8 8 8 11 11 9 10 10 9 9 7 8 9 9
0 1 2 5 2 4 4 1 1 2 1 3 2 2 1 1 2 1 1 1 2 2 2 2 1 4 0 2 3 3 4 2 7 8 10 9 11 11 10 10 10 11 10 7 6 6 10 16 15 17 16 16 16 17 17 16 17 17 16 16 16 15 15 14 14 14 13 13 12 12 11 11 11 11 10 9 9 9 9 8 8 8 8 8 9 9 11 11 10 9 8 8 8 6 9 8 9
3 4 0 4 4 2 3 2 0 2 3 1 4 4 2 3 4 2 1 1 1 1 3 2 1 2 1 5 4 2 4 8 9 11 10 11 11 12 8 10 10 9 10 8 6 6 7 13 16 17 15 16 15 15 15 15 15 16 16 16 16 15 15 14 13 13 13 12 12 11 11 11 10 10 9 9 9 8 8 8 8 8 8 8 9 10 10 12 11 9 8 6 7 6 7 8 7
1 2 2 3 2 3 2 2 2 1 1 2 2 2 0 2 3 1 1 0 0 0 3 2 2 5 3 6 2 2 3 8 11 10 9 10 11 10 9 9 10 11 9 8 6 6 6 13 17 17 16 14 16 16 15 13 14 13 14 16 15 15 14 13 12 12 12 11 11 11 11 11 10 10 9 9 9 9 8 8 9 9 8 8 8 10 10 12 12 10 8 5 6 5 6 8 6
2 4 3 3 5 1 1 2 2 3 2 3 3 2 1 1 3 1 1 2 1 1 2 3 5 4 3 3 2 3 8 8 10 13 11 11 11 9 8 7 8 9 10 9 7 6 7 8 15 18 16 15 16 16 15 16 15 14 14 14 14 14 14 13 12 12 11 11 11 11 10 10 10 10 10 10 9 9 8 8 8 8 8 9 8 7 7 10 12 11 9 8 4 4 5 5 6
2 2 3 3 1 1 1 1 2 3 3 2 1 2 0 3 3 2 1 2 1 2 2 2 3 3 4 2 1 6 9 7 7 10 12 12 8 8 7 6 7 7 8 8 6 5 5 7 8 13 17 16 16 16 15 16 15 15 13 13 13 13 13 13 12 12 12 12 11 11 11 10 10 10 10 10 10 9 8 7 6 5 5 6 6 8 8 5 6 10 10 8 5 4 4 5 5
1 1 3 3 0 1 0 0 1 2 2 3 2 1 2 2 2 3 3 1 0 3 2 1 6 3 3 1 3 8 9 9 8 10 12 10 9 7 7 6 6 6 6 6 6 5 4 4 4 6 10 16 15 14 14 14 15 15 14 13 12 12 13 13 13 12 12 12 12 12 12 11 11 11 10 10 10 11 9 8 6 4 2 1 4 6 6 6 8 5 5 6 5 4 3 4 4
2 4 2 1 1 2 1 1 2 1 3 2 2 0 2 1 2 4 4 3 1 2 3 1 2 6 4 4 3 5 5 9 11 11 9 10 8 8 8 7 7 6 6 5 5 5 4 4 3 3 4 2 2 10 13 13 13 13 13 14 14 14 14 13 14 14 13 12 12 12 12 11 11 11 11 12 12 13 12 9 8 6 4 3 2 2 4 5 5 7 6 6 5 4 2 3 3
0 1 3 3 1 1 1 1 3 1 3 2 2 4 1 1 2 3 4 5 4 2 0 0 3 4 4 6 3 7 8 11 12 11 10 10 10 9 9 7 8 7 6 6 5 5 5 4 2 4 5 1 2 3 2 6 12 11 12 12 12 13 14 14 14 15 15 14 14 13 12 12 11 11 13 11 14 10 5 2 6 5 2 3 3 4 4 5 4 5 5 4 4 3 2 2 2
3 4 3 1 1 0 2 2 1 1 3 2 1 3 2 2 0 3 3 1 1 1 0 1 1 1 3 7 4 11 12 13 11 11 11 12 9 9 9 8 8 7 6 6 6 5 6 6 5 2 5 3 2 2 1 1 7 12 11 11 12 13 13 12 13 14 14 14 14 14 13 9 8 4 0 3 1 9 5 5 4 8 7 5 4 5 5 5 5 5 5 4 3 2 1 1 2
1 3 1 3 1 2 2 3 4 2 2 1 0 3 2 1 0 2 1 1 2 0 1 0 1 2 7 4 8 12 13 13 12 13 11 9 8 7 6 6 6 6 6 7 6 7 7 8 8 4 4 5 3 3 2 2 3 10 9 11 12 12 10 13 9 8 11 12 11 11 11 5 5 6 5 4 7 4 3 12 8 10 7 6 6 7 6 4 4 4 4 4 3 2 1 1 3
1 1 3 0 2 3 4 4 7 2 4 3 4 4 3 2 1 2 1 1 1 1 0 2 2 1 4 4 13 14 14 13 13 13 10 9 7 7 6 7 7 8 7 7 7 7 8 7 9 8 5 7 6 4 4 3 3 4 3 2 5 7 8 9 8 4 4 2 6 5 5 5 4 4 6 5 4 8 8 10 10 11 10 8 6 7 5 4 3 3 2 2 2 1 2 1 2
3 1 2 3 5 4 6 4 5 4 2 6 5 4 3 4 6 2 2 1 0 0 1 2 3 2 5 10 13 15 15 13 13 11 14 14 11 12 10 8 8 7 8 7 6 9 6 6 7 9 8 6 8 6 4 5 6 3 3 2 1 6 5 6 3 4 4 4 2 3 4 5 5 5 6 7 6 12 9 11 11 11 10 9 10 8 3 3 4 5 4 2 2 2 1 2 1
2 4 2 5 6 3 4 4 6 3 7 5 4 3 1 2 3 1 1 2 1 4 4 0 2 4 9 11 14 14 13 12 13 13 14 14 12 13 11 11 9 9 9 8 8 6 7 6 7 7 8 8 7 6 5 4 4 3 3 3 3 2 3 3 3 4 4 4 4 3 4 5 6 5 10 16 15 10 8 11 12 12 10 8 10 4 2 4 8 7 5 4 0 1 2 0 0
1 1 3 3 3 2 4 5 4 3 5 7 4 2 1 1 2 2 1 2 3 5 4 6 8 8 12 14 15 15 14 13 13 11 12 12 12 10 10 10 8 7 6 6 6 8 9 8 7 7 7 7 7 6 7 6 5 4 3 4 4 3 3 3 3 4 4 4 3 3 4 5 7 8 7 6 6 5 4 5 6 6 4 5 10 3 2 2 5 6 1 3 2 2 1 1 1
4 5 2 1 0 1 2 5 4 4 2 9 5 5 5 1 0 2 5 4 6 7 7 6 4 10 13 14 15 14 14 14 13 13 12 12 13 12 10 9 7 6 6 7 8 8 9 8 8 7 7 7 7 6 6 7 7 5 5 4 5 4 4 4 4 4 4 4 4 3 4 4 5 6 8 9 9 7 7 7 7 5 4 4 3 5 5 4 6 3 1 1 2 1 1 1 1
1 3 3 2 2 1 1 4 2 5 4 6 6 4 3 5 1 2 5 7 4 4 3 7 5 9 12 14 14 14 14 14 14 14 13 11 9 9 10 9 8 9 8 8 7 7 8 8 8 8 8 7 8 6 5 6 6 5 5 5 6 6 5 5 5 4 5 5 5 4 4 5 5 4 6 6 8 9 8 7 6 4 6 4 2 4 6 6 4 2 1 1 1 0 1 1 2
2 2 2 1 2 4 0 3 5 1 10 7 4 3 3 4 1 1 4 9 8 4 2 7 6 4 9 11 13 16 15 15 14 13 12 12 11 11 10 10 7 6 7 7 7 7 8 9 8 9 8 8 7 7 6 5 5 6 6 7 7 7 6 6 5 5 5 5 5 5 5 5 5 4 4 4 5 5 7 6 4 4 2 2 1 1 2 2 2 2 1 1 0 0 1 2 2
2 3 0 0 1 4 3 5 4 2 2 1 5 5 4 7 3 2 6 12 6 3 3 8 8 6 8 11 12 12 12 11 11 10 8 8 9 10 8 5 7 7 8 8 8 8 9 8 9 9 8 9 7 7 7 5 5 5 5 5 5 7 5 5 5 5 4 3 3 4 4 3 3 4 5 5 4 4 4 4 4 3 4 3 2 3 2 2 2 2 2 1 1 1 1 2 2
1 1 2 2 1 2 2 5 3 3 1 2 4 3 1 3 2 3 10 5 3 2 3 8 8 7 9 10 11 11 11 12 10 10 11 9 8 10 10 9 9 9 10 9 9 8 8 9 11 11 10 8 8 7 6 6 6 6 6 6 5 6 5 5 6 5 5 5 4 6 7 6 6 6 5 5 6 5 4 4 3 3 3 5 6 6 3 4 3 3 2 2 2 2 2 2 2
2 3 3 3 0 1 3 2 2 1 1 3 4 3 1 1 3 6 3 4 4 5 4 5 9 8 7 7 8 9 11 11 12 9 7 7 8 10 10 9 10 10 9 10 9 8 8 10 10 10 9 10 8 8 7 7 6 6 6 5 6 6 6 6 5 5 5 6 6 7 8 9 6 5 5 5 4 4 4 4 4 4 3 5 6 6 3 3 3 3 3 3 2 2 2 2 2
2 2 2 6 4 3 0 2 2 1 2 6 2 0 1 1 2 8 3 2 7 7 5 5 6 7 5 5 8 6 8 8 8 9 12 10 9 10 10 10 10 9 10 11 9 8 9 11 11 10 10 9 9 9 8 7 8 7 7 6 7 6 7 7 6 6 6 5 3 5 6 7 7 5 6 5 5 5 5 5 4 4 4 4 4 4 3 3 4 3 3 2 2 2 3 3 2
2 1 2 4 5 2 1 2 1 1 1 4 3 0 1 1 6 3 4 3 5 7 6 5 5 6 5 4 6 6 7 7 7 9 11 11 10 9 12 10 10 10 7 9 9 10 11 11 10 11 11 10 10 10 9 8 7 7 7 7 7 7 7 7 6 6 6 6 6 7 7 5 6 6 5 6 6 6 5 5 4 5 5 4 4 4 4 3 2 2 3 3 3 3 3 4 3
1 6 1 3 5 5 3 1 2 3 2 2 1 3 7 7 10 2 5 6 5 5 5 6 4 4 4 4 5 5 4 6 9 10 9 8 8 9 10 9 8 8 8 7 8 10 8 7 7 8 10 11 11 9 8 8 8 7 7 7 7 7 6 7 7 6 6 6 7 7 7 6 6 3 4 6 5 5 5 5 5 5 4 4 4 5 4 4 4 3 4 3 4 4 5 5 4
2 1 5 1 2 3 3 0 4 3 1 1 1 2 8 8 6 7 4 6 10 7 6 6 5 4 4 4 5 6 6 7 10 9 7 7 6 6 7 6 7 6 6 7 11 10 10 9 8 7 10 11 11 10 10 9 8 8 7 7 7 7 7 7 7 6 7 6 6 6 6 5 5 5 6 6 6 5 5 5 5 5 4 4 4 4 5 4 4 5 4 4 4 4 5 5 5
3 3 3 3 2 6 8 2 5 6 0 3 2 3 9 9 7 3 4 6 7 8 7 7 6 5 4 4 5 5 7 6 5 6 7 7 6 5 6 7 6 6 8 9 8 8 9 9 9 8 10 10 10 10 9 8 8 7 7 7 7 7 7 6 7 7 6 6 5 5 6 6 7 8 7 7 6 6 5 5 5 4 5 5 5 5 5 5 5 4 5 5 5 5 4 4 3
4 4 2 2 0 5 7 1 1 5 2 1 4 6 5 2 5 2 1 7 7 7 6 7 7 7 6 5 5 4 4 5 6 7 7 7 6 5 5 4 6 7 6 7 8 8 8 9 9 9 10 11 9 9 8 7 6 7 7 7 8 7 8 7 7 6 6 6 6 6 6 7 8 8 6 7 6 6 5 5 4 5 6 6 5 5 5 5 5 4 5 6 5 4 2 4 3
1 2 1 3 1 1 2 8 1 1 3 3 1 1 6 2 5 3 1 2 5 6 7 7 6 6 7 5 5 6 6 6 9 9 9 7 6 6 5 5 4 4 4 6 8 10 10 9 8 8 8 9 8 9 8 7 6 6 5 6 6 6 7 6 5 5 6 6 6 5 6 7 7 6 7 7 6 6 6 5 5 6 6 6 5 5 5 5 5 5 5 5 4 3 3 3 4
3 4 5 5 2 3 8 1 2 3 1 3 1 5 13 10 2 1 2 2 4 7 7 6 6 6 6 6 6 6 6 8 11 7 6 6 6 6 5 5 5 6 5 6 7 8 7 7 7 8 8 8 8 7 7 6 6 5 4 5 5 4 3 4 5 5 5 5 5 5 6 6 6 7 7 7 6 6 6 6 6 6 6 6 6 5 5 6 6 6 6 3 3 4 4 4 4
3 2 2 2 5 6 3 5 3 8 3 4 5 8 10 5 1 1 3 4 6 8 4 4 5 5 5 6 7 6 8 11 6 3 4 5 5 5 5 4 5 6 6 6 7 8 8 7 7 7 7 8 6 6 6 6 5 6 6 5 5 5 4 4 4 5 5 6 7 6 7 6 7 7 8 8 7 7 6 6 6 6 6 6 6 6 6 6 7 7 6 5 4 3 4 3 3
1 1 1 4 4 9 5 4 5 6 2 8 9 9 5 7 2 2 4 4 5 6 7 7 6 6 6 7 8 9 8 12 1 4 4 5 5 5 4 4 4 5 6 7 8 9 9 9 8 9 8 8 7 7 7 7 6 5 4 7 8 7 6 6 6 6 6 6 7 7 7 6 7 8 8 9 8 7 6 6 6 6 6 6 6 7 7 7 6 5 4 4 5 4 3 3 3
1 1 1 8 2 7 6 0 4 3 5 2 1 5 10 9 7 4 3 4 10 12 11 8 10 8 6 7 9 10 10 2 2 3 4 4 5 6 6 5 5 7 6 8 10 10 9 9 10 9 7 7 8 8 8 7 7 8 7 7 6 6 7 7 8 7 8 7 7 7 7 7 7 8 8 8 8 8 6 6 7 7 7 7 6 6 6 6 6 5 4 3 3 4 3 2 3
0 3 1 3 7 6 12 2 2 0 2 7 1 3 8 7 7 4 4 10 9 12 11 11 7 5 5 6 7 6 4 5 3 4 3 5 6 7 7 7 7 9 9 10 9 9 9 9 9 8 8 8 8 8 7 8 6 6 7 5 7 4 5 6 7 6 5 6 6 6 7 7 7 7 7 9 8 9 7 7 7 6 7 6 7 7 6 6 6 6 5 5 3 2 3 3 4
2 1 0 5 4 1 5 3 3 0 2 3 3 3 7 6 5 4 5 8 4 3 4 4 3 5 8 8 6 6 7 7 8 6 6 6 7 7 7 8 8 7 7 8 9 10 9 9 8 9 9 8 8 8 8 7 7 5 4 4 4 4 4 4 3 3 4 5 6 6 5 6 7 7 8 9 8 8 8 8 7 6 7 6 6 7 7 7 6 5 5 5 4 4 2 2 3
2 4 4 4 3 3 5 1 1 2 1 4 3 3 6 4 5 7 4 2 5 5 4 4 5 6 5 4 5 8 9 8 8 6 6 6 7 8 10 9 8 9 9 10 10 10 8 10 10 10 9 9 8 8 8 6 5 5 3 3 3 2 3 2 1 2 5 6 6 6 8 7 7 7 8 9 7 8 8 7 7 7 7 7 6 6 7 7 7 5 5 5 5 5 3 2 1
4 6 11 8 4 2 1 0 2 3 3 3 0 2 3 4 5 4 7 3 4 3 3 8 6 5 4 7 10 5 6 7 10 10 9 9 8 8 8 9 9 9 10 9 9 9 9 8 8 8 7 7 8 9 8 6 7 7 6 5 5 5 3 4 7 6 5 7 8 5 6 7 8 8 7 8 8 7 8 9 7 6 7 7 7 6 6 6 5 6 5 5 6 6 5 2 2
2 5 9 8 3 3 4 2 2 0 0 3 2 4 3 5 2 3 5 5 6 4 4 9 7 7 4 8 9 6 6 5 5 6 7 9 10 9 9 10 11 11 11 7 7 7 8 7 7 8 8 7 7 7 8 7 7 6 8 8 7 7 6 5 4 4 5 4 3 5 5 6 6 8 8 8 8 7 7 8 7 8 6 5 6 5 6 6 5 6 4 5 5 4 4 4 5
2 3 4 4 3 2 5 6 5 1 1 2 4 3 2 4 3 3 5 4 5 5 7 9 10 8 8 7 9 7 5 6 7 9 9 10 10 11 13 13 11 12 8 7 8 7 8 8 8 8 7 6 6 7 8 8 8 8 8 7 6 6 7 6 6 6 5 4 5 5 4 6 6 6 8 7 7 7 7 7 7 5 6 6 6 7 6 5 5 4 5 6 5 5 6 6 6
4 0 6 1 2 3 5 5 4 1 1 4 2 0 1 2 6 4 2 2 4 6 7 9 10 10 8 6 9 9 5 6 7 8 9 10 10 12 11 10 9 6 8 10 9 7 6 7 7 4 6 7 9 5 6 8 9 9 9 7 7 6 5 5 4 4 5 5 6 5 6 5 6 6 6 7 7 7 7 7 8 7 7 5 6 5 6 6 7 6 5 5 6 5 5 6 5
6 4 5 4 4 5 3 4 4 1 2 4 3 1 3 4 5 4 2 1 5 7 8 10 10 10 7 5 7 6 3 3 5 7 7 7 7 6 4 2 4 7 5 5 5 6 6 6 7 8 10 11 13 10 8 9 10 8 8 8 9 6 5 4 5 6 5 5 6 7 6 6 6 7 7 7 7 7 7 6 7 7 7 5 6 6 6 6 6 6 6 6 5 6 5 5 7
3 5 1 4 7 5 3 7 3 3 0 6 4 2 2 1 4 5 3 4 5 3 5 6 7 8 7 6 7 5 3 3 3 4 5 4 3 3 4 6 5 5 5 6 6 7 7 7 9 11 12 9 10 11 11 12 9 8 8 8 8 7 6 6 5 5 4 4 5 7 7 6 6 8 8 7 6 7 7 6 6 6 6 5 5 5 6 6 6 6 5 5 5 6 5 6 5
1 0 1 6 4 8 3 4 5 2 3 4 4 3 2 2 3 5 7 4 4 5 6 7 7 8 7 3 3 3 3 3 3 4 4 3 2 3 5 6 7 6 6 7 7 7 7 8 9 11 10 10 10 10 10 10 8 8 7 8 8 8 7 6 7 7 6 7 6 7 6 6 6 6 6 7 7 8 6 6 6 6 6 6 6 5 5 5 5 4 4 4 5 5 5 4 5
3 3 4 2 4 4 1 5 1 1 2 0 1 0 1 3 5 4 6 7 7 5 5 5 6 8 6 4 5 4 2 1 3 3 2 2 4 4 5 5 6 7 8 8 8 7 7 9 11 12 12 10 9 8 9 8 8 8 8 8 7 6 7 7 7 8 7 7 6 6 7 8 7 7 7 8 8 8 7 6 7 7 5 5 5 5 5 6 5 5 5 5 5 6 5 5 5
3 2 3 3 1 2 0 3 1 4 4 4 1 0 1 4 7 3 5 7 5 5 6 4 4 5 5 5 4 5 3 3 3 3 3 3 3 3 3 5 6 5 6 8 7 8 8 8 10 12 12 10 9 8 8 8 9 8 7 7 7 6 7 7 7 7 7 7 7 7 8 7 8 9 8 8 7 8 7 7 6 7 6 5 5 6 6 5 6 5 5 5 6 6 5 6 5
0 2 4 4 6 1 1 1 1 1 2 4 3 1 2 1 3 2 6 7 6 4 2 1 1 1 3 3 2 3 3 2 1 1 2 0 1 3 3 4 4 5 6 7 7 7 7 8 9 10 9 9 10 10 9 9 8 7 7 6 6 5 6 6 6 6 7 7 6 6 6 6 6 6 7 6 7 7 7 7 8 7 7 5 5 5 5 5 6 5 5 6 5 5 5 5 5
1 4 6 4 3 6 1 4 3 1 0 0 0 2 2 3 2 5 3 3 1 3 4 5 4 5 6 6 5 4 4 4 2 2 1 1 2 3 3 3 4 5 6 6 7 7 8 9 10 10 11 10 10 9 9 9 8 6 6 7 7 6 5 5 5 5 6 7 7 7 7 7 6 6 6 7 7 6 6 6 6 7 6 5 5 5 6 5 5 5 5 5 6 3 5 6 5
2 1 1 2 3 9 5 2 2 1 4 1 1 5 5 7 3 2 6 3 4 6 5 5 5 6 6 5 5 5 5 4 5 4 0 1 2 2 4 5 4 5 6 7 8 9 10 9 9 10 10 7 8 9 9 5 4 7 7 7 7 7 7 7 6 7 7 7 7 7 6 6 6 5 5 6 6 6 6 6 6 7 6 5 5 6 6 6 6 5 5 6 6 5 5 6 5
4 2 2 1 1 3 4 1 2 4 2 3 2 1 6 3 2 5 4 3 3 5 4 5 5 4 4 5 5 5 5 4 5 5 1 0 1 3 4 4 5 6 6 6 7 6 6 6 8 10 8 8 7 8 8 7 8 7 6 7 7 7 7 7 6 7 6 6 6 6 5 5 6 5 5 5 6 6 6 7 6 6 6 6 6 6 6 6 6 5 6 6 6 5 6 5 5
3 1 3 0 2 1 3 4 1 0 1 2 2 1 4 3 3 3 2 3 3 3 3 4 6 5 5 6 6 6 4 4 4 5 3 2 1 2 3 5 5 5 5 5 3 3 4 5 5 6 5 2 3 3 4 4 5 5 5 6 7 7 7 6 5 5 5 6 6 6 7 7 5 4 4 3 4 5 5 6 6 6 6 6 6 6 5 5 5 5 5 5 5 5 6 6 5
3 2 4 1 3 2 1 1 2 4 1 1 4 3 3 5 4 4 4 3 5 4 4 6 8 7 5 5 4 5 6 5 5 5 5 3 2 2 4 5 5 6 5 4 4 4 5 5 5 5 4 5 5 6 6 6 6 6 6 5 6 6 6 7 7 6 6 6 6 6 5 4 5 5 5 5 5 5 5 5 5 6 7 6 6 6 5 6 5 6 5 5 5 6 6 6 6
7 9 6 5 2 1 4 1 1 1 4 4 3 1 5 7 7 6 6 7 8 8 8 7 8 7 5 4 4 5 5 5 5 5 5 6 3 2 3 3 3 2 2 2 4 5 4 4 5 4 5 5 6 6 5 6 5 6 7 8 8 7 7 7 7 7 6 6 4 3 7 1 3 6 5 5 5 4 4 4 5 5 6 4 4 4 5 5 5 6 5 6 5 6 6 6 5
3 2 2 2 3 3 1 1 1 2 2 2 3 3 6 8 1 5 6 8 8 7 7 7 7 7 6 4 2 3 5 4 4 5 5 5 2 3 3 1 1 2 2 4 3 3 3 5 5 4 3 4 5 5 6 5 5 6 7 7 8 7 7 7 8 8 7 5 6 8 7 9 7 6 6 5 5 4 3 3 3 3 2 2 5 4 4 3 4 6 7 5 5 6 7 7 6
Wind_Direction
172 121 156 163 133 124 87 358 99 328 62 33 84 20 234 237 242 291 244 31 235 194 173 152 129 152 176 249 185 141 144 153 204 134 210 240 118 141 129 125 125 132 144 153 156 161 151 155 156 149 152 171 148 141 139 135 135 136 136 135 136 136 137 136 140 137 135 132 131 129 125 125 122 119 119 118 118 119 120 119 116 113 111 104 101 98 94 92 90 88 86 85 84 86 82 81 73
166 165 160 183 200 117 281 132 94 15 41 89 10 163 260 245 340 237 254 209 248 109 127 170 198 210 260 289 136 128 71 63 219 137 98 120 118 113 129 132 135 137 144 153 152 160 154 159 165 163 168 167 154 147 142 141 139 139 140 141 143 144 144 143 140 136 134 131 127 125 125 125 122 119 119 119 119 123 123 121 117 116 112 107 100 95 94 93 91 88 86 85 86 88 85 84 79
164 143 184 82 49 124 137 54 69 38 76 64 287 177 230 279 204 256 240 248 269 332 306 265 162 122 112 32 276 4 246 57 86 126 103 138 134 145 137 137 132 134 139 149 152 152 158 166 166 169 161 159 152 148 148 145 143 143 144 144 144 141 146 144 138 136 135 131 126 124 127 126 123 121 120 121 123 125 126 124 121 120 116 109 103 97 92 92 90 88 88 87 86 87 87 86 86
109 183 161 93 303 46 69 26 93 119 80 184 333 291 159 179 247 237 264 267 272 325 352 337 86 171 117 24 219 92 70 34 350 138 131 163 165 139 140 137 130 125 130 140 145 144 151 168 167 159 155 153 151 150 147 148 147 148 147 148 147 146 154 144 141 137 134 133 127 125 126 124 122 123 122 123 123 126 128 126 125 119 113 112 109 103 95 91 92 89 86 86 85 82 80 81 87
119 247 141 93 109 8 88 109 120 101 92 206 124 279 239 205 258 299 289 272 281 157 166 323 55 81 157 132 145 114 206 82 119 153 116 106 113 136 139 134 130 136 136 141 149 148 163 167 160 155 153 150 148 147 146 150 154 152 152 151 151 152 155 146 143 140 135 130 129 124 126 126 126 126 124 125 129 132 132 129 127 122 114 109 108 103 96 93 91 88 83 78 78 80 79 76 74
108 95 5 99 88 190 50 40 17 57 208 151 111 255 224 225 220 6 303 305 257 197 199 111 179 183 25 10 59 99 131 147 162 94 134 124 130 138 137 133 137 141 140 140 149 155 174 172 158 155 154 152 153 151 148 155 160 157 152 149 152 154 150 147 143 140 137 134 133 129 128 129 130 129 129 131 135 138 136 132 131 129 122 112 107 106 100 92 90 88 85 82 79 82 79 71 69
278 55 357 29 25 54 115 114 105 160 304 153 209 255 246 214 192 4 336 346 153 187 169 276 98 91 83 107 61 95 263 132 135 143 121 126 125 133 136 137 138 139 141 144 146 156 178 169 164 159 158 159 156 152 154 155 157 156 153 153 154 153 152 150 146 143 140 140 136 135 133 133 134 135 137 139 144 142 137 136 137 133 127 126 118 108 103 96 86 87 91 91 90 92 93 85 70
310 87 325 85 19 45 41 162 138 173 297 175 218 240 257 197 146 81 308 84 324 45 296 247 249 104 137 9 116 328 53 35 97 104 115 122 126 133 136 140 138 144 144 140 144 156 174 172 168 158 160 161 156 158 157 154 154 154 155 155 154 154 154 152 150 148 146 147 140 140 139 138 140 143 143 148 147 143 141 139 138 133 129 125 115 109 105 101 95 92 91 95 100 100 100 96 93
339 91 257 67 28 35 61 58 275 263 277 294 277 213 269 160 152 133 12 252 267 359 342 324 80 77 310 41 50 64 57 92 104 116 120 125 133 139 140 145 143 142 145 143 145 157 159 176 163 161 162 158 161 159 158 156 154 156 158 157 156 156 155 153 153 153 151 152 147 145 146 144 147 147 151 151 147 145 145 143 139 134 129 126 120 119 117 113 111 108 101 100 93 96 94 91 86
18 65 355 102 133 15 360 318 67 190 254 248 250 296 63 150 132 136 169 41 280 329 23 28 92 105 101 71 72 24 112 114 116 109 118 132 136 143 140 146 146 142 142 143 146 155 164 176 167 162 161 160 164 163 161 160 156 157 158 160 159 158 155 155 155 156 156 154 156 155 151 154 154 157 156 152 151 150 154 151 144 139 134 129 136 136 133 128 127 120 113 105 105 112 99 96 94
321 12 137 67 30 28 33 291 285 315 304 323 295 269 224 111 129 131 166 178 302 150 147 69 63 114 101 73 67 81 116 123 128 139 139 135 140 143 142 138 142 146 142 144 145 154 161 173 173 161 159 165 167 164 164 163 163 162 160 161 160 159 157 158 160 161 162 164 162 164 160 163 164 165 163 157 156 157 156 159 152 150 148 145 148 132 138 141 137 129 133 129 137 108 97 101 95
355 3 14 99 85 156 251 171 301 284 299 344 291 302 150 127 119 106 149 128 332 37 54 46 158 148 65 105 90 125 134 137 141 140 139 137 140 143 138 134 138 139 139 137 138 140 152 172 170 164 162 169 167 165 167 165 165 166 163 163 161 161 161 164 167 169 170 172 172 171 173 170 171 173 169 162 158 156 155 156 156 149 152 149 147 145 144 147 127 135 138 136 126 117 107 88 82
101 113 68 80 187 133 159 352 271 282 345 277 208 253 128 111 192 171 149 136 304 92 40 357 126 80 93 96 137 133 152 153 149 145 141 142 141 135 126 126 127 132 136 132 136 138 147 162 152 160 170 172 169 168 171 170 168 167 167 166 165 168 168 170 173 175 177 179 177 180 180 177 180 179 169 167 161 153 159 156 151 147 146 163 159 148 140 144 126 103 89 98 102 79 69 72 65
111 178 117 12 59 119 126 265 328 273 285 248 245 185 145 139 251 161 142 111 242 110 213 181 92 112 88 104 144 158 157 152 151 147 140 134 131 132 131 129 133 135 137 137 137 140 143 148 138 120 134 131 137 170 177 177 175 172 173 173 174 174 175 176 178 179 181 185 185 185 187 187 186 184 178 170 169 161 164 155 146 152 161 180 194 168 150 144 137 139 134 127 116 117 93 62 40
90 157 83 118 1 58 234 121 229 168 263 216 212 142 145 316 124 131 163 135 231 204 309 287 168 103 208 164 196 190 157 152 150 148 140 131 128 133 131 134 139 143 144 145 141 139 155 119 43 70 66 76 60 33 41 187 179 176 177 178 181 186 182 183 185 185 184 186 189 191 192 194 198 195 189 176 173 144 125 124 133 79 261 196 202 209 178 149 145 140 137 122 113 100 65 39 25
146 80 76 98 305 122 261 166 70 84 267 199 352 91 92 329 228 136 247 161 259 114 169 143 177 173 166 175 198 165 143 147 149 141 137 135 129 129 134 142 146 150 152 151 157 156 155 128 119 177 154 141 169 86 121 345 197 181 174 179 179 187 189 190 191 193 191 190 190 191 190 182 185 185 177 277 142 98 119 272 130 178 204 203 214 224 200 168 165 167 152 140 128 146 165 335 325
61 82 56 33 310 147 254 165 146 223 237 269 22 140 162 241 317 256 219 206 161 226 46 177 165 55 165 195 136 137 138 145 142 143 137 130 130 134 137 142 150 154 160 162 162 167 162 149 148 172 158 136 157 175 160 216 277 198 181 188 192 193 195 194 180 191 202 202 197 200 187 154 101 56 93 334 287 28 177 204 196 194 204 194 210 225 217 183 182 190 170 154 157 191 230 267 291
46 93 115 298 199 145 212 177 189 199 131 205 178 197 124 190 247 254 63 36 94 12 20 335 10 342 156 104 128 133 142 147 147 145 143 140 148 146 151 159 162 169 167 165 172 170 168 167 155 149 182 176 169 165 169 190 255 238 182 196 211 198 201 210 196 171 157 60 217 190 117 118 90 90 124 164 61 222 221 199 206 205 198 192 210 224 214 190 180 230 206 156 158 184 272 41 20
96 131 93 229 180 239 168 194 181 134 206 170 190 179 179 220 153 249 114 264 54 269 299 29 56 46 98 117 130 141 151 150 151 151 152 159 164 165 167 165 173 167 174 173 172 174 167 157 159 157 170 172 157 162 170 184 205 228 196 172 278 209 189 211 180 175 127 146 252 122 141 115 129 135 144 165 186 225 211 206 209 211 202 186 207 219 239 203 196 210 213 187 177 231 41 70 55
219 111 186 252 208 233 222 169 189 209 135 133 157 215 173 287 164 31 215 172 34 203 193 53 130 145 140 140 141 149 157 150 153 156 166 168 167 168 170 173 178 183 179 176 172 167 167 167 164 163 163 164 164 162 163 181 192 184 177 193 228 232 182 189 157 140 154 161 182 153 137 145 145 151 182 176 205 218 223 222 213 213 207 210 202 202 265 318 290 243 207 198 343 33 90 78 71
250 93 194 236 203 139 243 200 212 154 148 144 148 95 218 280 222 142 171 95 283 270 239 187 175 166 153 152 151 156 160 154 163 165 170 173 172 173 177 180 179 174 172 162 165 177 173 168 161 162 160 165 164 164 160 172 167 172 172 195 204 217 197 162 161 145 172 175 158 161 148 161 158 172 174 164 175 213 235 248 242 225 212 206 212 139 136 288 280 278 4 59 84 55 61 344 347
122 217 219 200 109 255 229 188 94 113 98 117 135 132 211 114 86 190 160 164 223 216 221 223 180 162 155 158 157 161 164 161 169 169 176 177 174 173 176 180 184 170 164 178 181 174 175 171 166 162 161 168 170 170 166 167 161 174 189 188 189 205 200 187 177 177 174 173 167 171 162 159 171 170 165 165 170 218 216 218 220 214 226 209 174 160 160 210 226 214 97 81 82 95 61 340 283
356 306 289 211 182 278 63 118 156 127 118 130 157 207 108 152 220 187 190 209 227 229 225 177 165 179 162 155 156 165 168 168 172 177 176 177 178 173 173 179 178 175 181 186 176 177 172 171 168 163 167 167 170 168 161 167 171 168 179 185 183 191 181 182 187 183 181 167 167 175 165 189 199 176 163 169 166 189 211 204 201 178 184 167 139 155 162 179 197 161 117 111 74 60 308 292 273
105 256 342 23 31 313 358 111 147 262 143 182 183 125 140 163 212 194 203 237 241 307 230 149 146 164 152 156 168 170 173 172 178 178 178 181 180 178 176 178 174 167 177 180 180 179 178 178 169 167 168 169 171 168 166 174 170 168 182 186 188 188 177 184 186 185 180 172 168 178 175 192 196 177 168 171 177 175 198 203 203 173 139 78 347 354 148 144 173 154 155 128 41 351 274 273 272
99 326 49 282 73 300 74 109 124 80 14 44 125 140 216 178 172 113 238 241 257 326 112 123 133 150 162 162 170 172 172 175 176 176 174 184 182 172 174 171 168 171 181 184 180 180 182 177 173 174 173 175 171 170 173 172 167 171 182 183 185 195 177 182 178 163 174 186 187 199 193 193 202 202 184 188 179 186 183 183 184 184 139 111 268 288 271 209 186 179 186 199 179 249 267 267 271
3 233 191 80 123 328 19 100 100 110 105 180 109 219 333 196 319 221 239 249 208 138 117 127 134 151 172 173 172 173 176 179 177 174 180 183 181 174 178 181 171 180 190 180 177 184 176 175 179 180 177 174 172 173 177 174 175 177 186 188 189 193 184 180 170 173 190 183 200 202 218 188 204 199 198 186 194 196 185 183 176 184 162 137 190 234 251 221 182 183 179 198 218 229 255 262 272
205 229 199 120 311 136 10 95 87 240 197 215 176 242 302 352 89 284 288 213 133 120 134 131 145 162 174 175 179 180 177 181 183 172 165 180 182 188 187 183 179 187 177 180 182 182 175 175 181 181 178 179 172 181 180 181 176 184 187 184 187 197 191 183 183 186 183 192 198 189 201 202 189 188 191 183 188 197 189 187 180 173 180 164 169 199 191 201 185 181 183 195 210 221 249 271 277
225 167 71 35 1 74 50 64 30 153 257 189 153 244 38 6 88 236 255 185 146 138 151 149 159 164 155 176 184 183 185 183 178 173 179 181 188 192 190 187 185 178 182 185 183 174 172 181 179 180 180 178 177 184 183 181 184 186 185 179 189 193 188 191 186 189 193 189 178 201 196 196 193 190 191 188 199 209 211 196 175 181 190 190 186 166 156 190 191 184 181 193 213 237 265 273 266
354 117 173 320 6 17 327 174 192 95 274 160 166 220 326 117 218 245 255 148 141 146 157 163 171 165 145 160 177 182 187 178 183 192 195 193 191 190 193 193 181 182 188 182 174 175 178 177 179 181 178 179 181 183 184 184 181 182 179 186 189 192 190 188 190 190 188 178 178 209 198 164 191 198 183 188 205 209 208 202 184 190 202 203 205 194 155 173 180 178 213 218 233 244 258 266 261
54 39 112 16 3 342 294 101 78 128 272 120 21 279 264 244 234 271 273 153 120 133 167 171 184 175 157 159 175 182 181 183 200 203 198 201 201 199 198 195 188 181 175 176 173 183 176 176 179 177 180 182 184 183 181 182 184 183 182 181 189 188 190 190 194 191 184 185 194 201 195 179 186 157 169 189 192 198 203 203 198 198 192 199 209 212 194 172 208 199 218 219 237 238 245 254 258
103 278 59 89 23 275 299 280 138 150 149 75 86 216 285 270 275 272 259 158 155 171 182 182 187 192 184 171 177 190 206 204 203 205 208 209 210 214 212 196 193 180 167 176 186 182 175 177 177 180 183 184 181 184 185 186 184 181 178 182 187 188 190 193 195 191 189 185 185 198 195 158 159 177 185 181 188 194 197 201 206 208 172 206 211 210 209 208 209 217 218 224 233 238 243 252 259
19 50 316 331 168 277 298 278 162 172 339 53 95 300 249 278 303 275 220 161 156 177 184 188 191 198 201 197 196 200 211 214 223 219 219 217 214 213 211 206 194 187 183 184 180 174 181 178 181 180 182 183 185 186 186 185 182 180 182 185 187 189 189 191 196 194 190 188 182 187 178 153 163 203 186 178 178 191 198 199 203 183 184 206 210 205 203 212 215 221 224 223 226 236 243 258 242
350 63 292 298 222 269 340 327 235 168 113 7 158 233 325 328 340 327 262 167 168 177 194 192 196 203 205 206 211 217 216 225 224 222 216 212 218 213 214 210 203 200 186 175 176 176 183 182 183 182 181 184 184 187 183 182 179 186 185 185 190 188 193 197 197 185 187 194 195 197 186 172 177 192 185 173 175 187 197 194 193 193 195 201 199 203 208 213 213 221 228 222 219 231 230 263 262
319 17 49 217 229 290 262 300 261 219 123 224 282 246 240 234 360 57 32 208 174 189 203 202 200 204 210 208 215 218 222 226 225 217 215 202 206 207 204 203 196 201 201 184 180 180 185 182 185 186 180 182 182 184 180 177 182 183 179 190 191 189 197 202 182 176 193 194 192 196 191 193 188 160 185 175 177 183 193 196 192 196 196 188 185 196 208 205 211 222 225 213 209 215 231 247 262
310 348 3 330 313 202 245 293 289 120 39 177 273 251 275 265 11 21 196 223 212 220 207 203 205 204 209 214 215 223 226 227 233 222 213 203 197 200 195 191 179 183 190 187 185 186 179 179 179 185 176 179 180 178 168 161 158 151 167 190 198 170 175 175 170 188 195 194 195 192 187 192 198 171 187 181 167 186 185 189 195 194 193 183 181 187 196 204 210 217 229 221 204 211 219 229 244
288 257 247 246 310 304 238 239 254 179 166 221 202 231 246 297 341 288 213 223 208 229 239 233 222 212 209 215 222 223 229 240 230 207 197 196 197 193 191 189 186 181 181 179 184 184 184 180 180 180 177 174 163 159 151 153 145 165 175 195 201 177 187 185 192 194 194 199 202 192 194 188 192 190 187 184 185 190 189 186 191 188 188 185 182 191 201 204 209 215 223 231 239 240 227 233 234
88 93 259 253 262 283 264 244 242 165 100 226 221 239 268 284 281 279 257 238 246 246 238 225 222 214 206 210 219 225 225 240 178 199 194 193 189 188 180 176 186 182 181 181 182 188 186 185 178 187 180 167 165 164 166 165 168 164 177 195 202 186 188 200 215 206 198 207 207 207 199 191 184 191 185 186 191 198 184 184 186 186 189 191 191 201 200 207 207 206 210 223 235 245 260 221 226
246 262 259 293 196 259 258 303 16 290 176 309 281 236 267 265 283 262 267 192 228 226 227 232 225 215 217 207 217 222 231 267 198 201 204 181 179 177 170 173 174 179 198 186 190 190 188 185 187 186 171 173 179 179 174 174 179 186 184 197 199 187 181 189 211 211 206 197 198 203 201 198 185 191 187 183 188 195 184 184 188 191 188 195 199 195 194 198 204 200 193 216 230 237 245 193 183
313 246 285 324 276 238 282 299 299 358 163 263 126 191 257 266 278 292 216 204 224 218 212 220 222 230 225 225 224 229 240 240 232 228 193 195 185 181 179 182 191 196 189 193 193 185 187 189 191 181 180 180 185 182 176 184 182 184 187 183 198 202 215 204 202 205 192 194 195 197 198 196 192 189 191 185 190 190 186 180 189 188 189 193 198 196 196 198 196 193 185 202 224 230 241 224 198
177 104 90 232 242 355 312 310 356 18 131 261 198 204 279 302 295 280 241 223 281 310 258 258 217 228 232 224 210 211 221 221 224 210 207 199 190 187 186 189 192 190 190 193 190 191 189 192 188 184 184 184 184 187 190 188 178 174 187 175 192 200 224 211 198 151 171 185 208 202 194 190 196 200 196 189 188 185 185 186 185 187 190 191 192 195 195 201 197 194 192 200 197 240 215 280 197
251 179 185 255 261 234 175 275 24 343 339 90 81 39 329 341 346 336 326 291 280 299 335 289 251 235 238 245 227 202 208 207 220 214 213 199 195 197 195 195 186 193 195 194 191 191 192 192 190 186 184 186 186 187 189 171 148 137 140 96 125 99 36 70 74 211 194 202 206 198 206 196 197 202 200 196 185 184 185 184 184 187 187 190 191 196 197 203 201 194 185 189 191 209 233 235 298
315 223 198 210 200 202 300 22 82 27 328 295 197 17 315 301 310 276 289 338 270 288 311 272 264 270 237 243 244 212 211 197 203 211 207 201 200 197 197 193 195 201 202 198 193 193 189 190 188 187 185 185 186 187 179 162 174 168 161 166 175 184 180 175 204 212 201 204 212 201 198 198 199 205 201 199 193 180 184 186 179 173 188 187 193 197 199 197 191 192 188 187 199 204 215 197 263
67 276 193 214 181 117 116 134 79 6 112 321 4 154 262 327 352 311 304 317 284 310 274 269 274 267 255 251 258 240 200 207 222 217 202 196 202 196 200 197 199 202 205 183 187 192 192 186 186 185 187 190 186 180 174 174 176 178 186 192 192 191 198 213 203 208 205 213 193 196 193 189 195 204 207 204 202 190 184 185 181 185 182 175 187 184 190 195 194 194 179 185 204 193 173 225 234
251 243 149 135 113 138 189 161 163 183 240 285 40 115 146 328 295 269 298 309 295 294 269 268 267 262 252 252 260 258 213 201 197 209 210 208 198 196 200 204 196 204 181 177 184 180 182 182 183 188 189 190 187 173 180 180 181 185 191 198 197 200 205 201 194 204 197 188 195 197 181 198 193 200 210 202 205 203 190 188 184 175 178 183 182 195 197 195 194 195 187 195 198 190 182 204 237
216 208 161 204 198 186 158 134 131 167 120 278 338 10 76 267 267 310 349 279 297 278 263 263 263 263 259 256 259 258 231 208 199 207 212 209 204 207 207 204 206 176 176 185 184 176 169 172 170 120 64 37 356 320 184 185 186 188 190 188 198 208 198 188 179 192 188 182 188 185 187 192 197 198 205 205 206 211 203 193 189 187 188 180 188 188 196 193 196 191 188 191 197 199 196 207 207
273 150 87 63 63 62 108 106 110 8 66 274 249 175 149 284 274 337 347 283 278 252 250 255 255 260 267 261 263 267 265 220 220 224 222 220 218 217 201 164 165 192 181 176 166 162 162 150 131 135 175 175 184 199 208 199 194 183 186 190 193 198 184 172 170 192 198 187 185 188 185 187 195 200 203 204 207 211 215 200 196 191 190 180 191 185 189 194 197 196 194 199 199 207 201 199 201
92 79 149 358 35 21 22 59 91 67 11 256 237 207 127 282 266 214 143 223 205 259 298 275 275 278 269 243 258 275 273 241 238 243 243 238 221 185 161 183 170 155 169 169 172 171 158 150 150 170 198 189 186 199 191 198 193 185 191 185 187 194 188 174 171 196 197 191 193 191 187 191 192 198 200 202 203 209 216 213 206 202 196 192 193 180 192 196 197 196 200 198 204 201 195 195 207
11 7 104 17 348 4 31 344 35 97 274 264 295 190 114 146 294 284 243 273 241 196 213 247 267 269 274 285 285 299 301 265 235 231 244 233 204 167 164 177 170 169 162 175 178 171 163 159 166 183 200 196 194 199 198 196 188 194 188 177 184 191 187 185 187 191 193 200 195 189 186 183 194 197 195 197 202 204 208 214 213 208 205 202 204 191 194 198 196 194 191 189 202 203 195 188 199
85 87 35 63 275 27 268 14 357 190 179 105 352 176 46 235 215 243 292 271 268 233 233 243 252 264 277 314 351 330 311 244 241 246 231 206 205 191 186 175 166 174 181 179 178 174 170 175 178 189 204 199 198 195 202 195 189 194 187 184 188 182 188 195 195 197 194 199 195 184 178 189 191 199 200 201 201 195 199 209 212 213 211 207 206 198 202 196 196 195 193 198 199 195 193 189 189
110 187 133 81 35 35 255 274 233 299 303 252 301 211 189 252 297 237 266 279 255 267 258 253 276 276 303 315 322 328 309 242 237 236 224 205 205 211 187 176 179 177 180 181 178 176 181 186 187 193 205 197 195 195 199 195 200 195 188 191 191 183 195 200 204 199 193 201 197 190 188 183 189 199 197 203 191 189 196 205 208 215 214 207 203 203 202 199 194 200 195 201 205 209 191 192 199
167 116 132 189 141 161 281 228 269 224 204 285 278 55 237 119 226 288 277 277 284 261 232 257 257 304 280 271 288 314 322 305 320 292 267 43 174 186 178 166 170 179 183 183 183 182 181 195 198 202 201 198 194 201 193 195 196 189 186 193 192 191 200 204 210 202 193 197 200 195 193 181 185 193 198 197 188 188 190 199 209 215 215 205 206 205 207 201 199 201 201 207 211 204 204 200 204
254 158 110 69 259 145 170 209 151 221 183 2 345 221 182 206 271 286 299 299 341 354 15 11 348 340 354 351 353 325 313 318 318 299 334 69 170 162 135 142 171 179 187 187 188 183 188 200 203 206 205 197 196 198 201 197 189 179 179 189 198 195 201 207 212 207 202 199 194 195 194 191 194 188 194 195 194 184 186 189 194 210 210 204 206 207 207 202 198 200 206 203 217 201 203 208 215
253 114 270 220 171 109 92 93 18 88 49 208 267 321 309 307 330 314 336 27 359 7 5 3 337 331 348 330 325 309 308 312 308 292 47 95 115 125 142 157 170 181 187 196 197 194 197 195 201 212 215 199 193 200 207 174 173 178 192 196 193 197 205 207 206 205 199 198 194 197 193 195 190 183 182 189 189 192 189 188 194 200 197 199 205 210 208 205 196 204 207 206 215 207 204 214 213
80 57 250 282 112 125 129 215 347 53 143 255 44 302 304 28 228 322 8 4 320 343 335 322 308 325 330 294 298 296 307 297 284 286 312 162 163 144 147 166 177 188 196 201 208 209 208 206 206 212 212 206 197 195 201 180 183 193 192 200 204 205 209 213 207 214 206 194 197 195 186 180 189 185 180 184 186 190 192 194 193 198 199 195 203 207 209 209 201 208 210 212 218 199 208 217 214
99 169 188 101 299 317 321 87 21 38 267 281 321 292 252 174 254 342 245 219 258 294 315 327 296 294 276 286 297 307 306 307 304 308 360 38 90 127 164 175 184 191 200 200 195 194 214 219 226 226 222 292 274 236 214 175 179 197 196 205 207 213 215 217 216 212 204 203 197 192 190 194 178 164 173 169 182 190 188 195 194 197 197 200 198 207 206 212 204 210 210 219 211 198 209 218 219
37 59 24 9 100 154 57 217 174 114 191 74 279 38 237 216 218 197 248 265 240 258 289 258 256 259 259 266 286 300 309 309 321 341 348 340 76 159 173 178 185 191 194 188 168 175 213 224 226 228 134 184 215 194 197 201 197 200 206 199 209 216 220 219 217 206 206 206 201 189 181 148 151 145 149 147 151 180 193 204 198 201 202 201 200 205 204 210 209 216 213 218 213 201 212 220 227
347 26 1 359 19 219 108 50 59 203 168 181 168 284 278 258 211 172 215 213 218 200 220 239 251 262 262 258 267 287 293 314 331 337 337 325 49 118 172 193 198 165 179 163 183 194 205 212 233 228 207 181 199 204 197 214 200 210 214 218 217 208 217 218 221 216 209 202 178 105 69 325 187 181 169 157 166 181 158 173 192 218 219 206 203 209 206 205 206 216 219 218 214 209 215 226 223
109 136 74 230 359 30 40 280 1 84 103 201 118 237 272 272 166 217 214 221 208 213 207 237 256 262 268 264 252 252 293 318 324 325 320 314 11 105 89 95 86 118 158 191 206 182 193 216 228 228 208 206 203 208 213 219 217 219 220 222 226 221 218 213 217 217 211 179 95 92 177 198 192 185 168 157 147 146 141 117 93 67 32 141 179 194 195 192 238 243 227 213 219 209 218 228 220